[{"OBJECT_NAME":"AMOS-4","OBJECT_ID":"2013-045A","EPOCH":"2026-09-12T03:57:01.537632","MEAN_MOTION":1.00272149,"ECCENTRICITY":0.00011871,"INCLINATION":0.0469,"RA_OF_ASC_NODE":257.1893,"ARG_OF_PERICENTER":257.8762,"MEAN_ANOMALY":320.3881,"EPHEMERIS_TYPE":0,"CLASSIFICATION_TYPE":"U","NORAD_CAT_ID":39237,"ELEMENT_SET_NO":999,"REV_AT_EPOCH":4783,"BSTAR":0,"MEAN_MOTION_DOT":-8e-8,"MEAN_MOTION_DDOT":0},{"OBJECT_NAME":"AEHF-3 (USA 246)","OBJECT_ID":"2013-050A","EPOCH":"2026-09-12T03:03:06.706944","MEAN_MOTION":1.00268534,"ECCENTRICITY":0.00918863,"INCLINATION":5.5032,"RA_OF_ASC_NODE":66.3351,"ARG_OF_PERICENTER":188.356,"MEAN_ANOMALY":18.0548,"EPHEMERIS_TYPE":0,"CLASSIFICATION_TYPE":"U","NORAD_CAT_ID":39256,"ELEMENT_SET_NO":999,"REV_AT_EPOCH":4652,"BSTAR":0,"MEAN_MOTION_DOT":1.7e-7,"MEAN_MOTION_DDOT":0},{"OBJECT_NAME":"ASTRA 2E","OBJECT_ID":"2013-056A","EPOCH":"2026-09-12T05:29:07.706688","MEAN_MOTION":1.00270892,"ECCENTRICITY":0.00021669,"INCLINATION":0.0925,"RA_OF_ASC_NODE":304.7836,"ARG_OF_PERICENTER":223.6468,"MEAN_ANOMALY":293.5786,"EPHEMERIS_TYPE":0,"CLASSIFICATION_TYPE":"U","NORAD_CAT_ID":39285,"ELEMENT_SET_NO":999,"REV_AT_EPOCH":4729,"BSTAR":0,"MEAN_MOTION_DOT":0.00000135,"MEAN_MOTION_DDOT":0},{"OBJECT_NAME":"FM-6","OBJECT_ID":"2013-058A","EPOCH":"2026-09-12T03:05:14.004384","MEAN_MOTION":1.00273543,"ECCENTRICITY":0.00008675,"INCLINATION":0.0275,"RA_OF_ASC_NODE":128.968,"ARG_OF_PERICENTER":132.4911,"MEAN_ANOMALY":19.5877,"EPHEMERIS_TYPE":0,"CLASSIFICATION_TYPE":"U","NORAD_CAT_ID":39360,"ELEMENT_SET_NO":999,"REV_AT_EPOCH":4694,"BSTAR":0,"MEAN_MOTION_DOT":0,"MEAN_MOTION_DDOT":0},{"OBJECT_NAME":"RADUGA-1M 3","OBJECT_ID":"2013-062A","EPOCH":"2026-09-12T03:48:24.863904","MEAN_MOTION":1.00271194,"ECCENTRICITY":0.00022254,"INCLINATION":6.177,"RA_OF_ASC_NODE":71.2249,"ARG_OF_PERICENTER":302.8024,"MEAN_ANOMALY":69.1931,"EPHEMERIS_TYPE":0,"CLASSIFICATION_TYPE":"U","NORAD_CAT_ID":39375,"ELEMENT_SET_NO":999,"REV_AT_EPOCH":4698,"BSTAR":0,"MEAN_MOTION_DOT":0.00000141,"MEAN_MOTION_DDOT":0},{"OBJECT_NAME":"SES-8","OBJECT_ID":"2013-071A","EPOCH":"2026-09-12T02:22:55.562016","MEAN_MOTION":1.0027199,"ECCENTRICITY":0.0002016,"INCLINATION":0.0509,"RA_OF_ASC_NODE":270.983,"ARG_OF_PERICENTER":240.1357,"MEAN_ANOMALY":330.7289,"EPHEMERIS_TYPE":0,"CLASSIFICATION_TYPE":"U","NORAD_CAT_ID":39460,"ELEMENT_SET_NO":999,"REV_AT_EPOCH":4530,"BSTAR":0,"MEAN_MOTION_DOT":-0.00000285,"MEAN_MOTION_DDOT":0},{"OBJECT_NAME":"INMARSAT 5-F1","OBJECT_ID":"2013-073A","EPOCH":"2026-09-12T03:56:16.609632","MEAN_MOTION":1.0027017,"ECCENTRICITY":0.00002197,"INCLINATION":0.0191,"RA_OF_ASC_NODE":138.8592,"ARG_OF_PERICENTER":359.3732,"MEAN_ANOMALY":334.6501,"EPHEMERIS_TYPE":0,"CLASSIFICATION_TYPE":"U","NORAD_CAT_ID":39476,"ELEMENT_SET_NO":999,"REV_AT_EPOCH":4645,"BSTAR":0,"MEAN_MOTION_DOT":1.3e-7,"MEAN_MOTION_DDOT":0},{"OBJECT_NAME":"TKSAT-1 (TUPAC KATARI)","OBJECT_ID":"2013-075A","EPOCH":"2026-09-12T06:38:53.516256","MEAN_MOTION":1.00273521,"ECCENTRICITY":0.00021427,"INCLINATION":0.019,"RA_OF_ASC_NODE":339.3047,"ARG_OF_PERICENTER":174.8872,"MEAN_ANOMALY":209.6019,"EPHEMERIS_TYPE":0,"CLASSIFICATION_TYPE":"U","NORAD_CAT_ID":39481,"ELEMENT_SET_NO":999,"REV_AT_EPOCH":4647,"BSTAR":0,"MEAN_MOTION_DOT":-0.0000021,"MEAN_MOTION_DDOT":0},{"OBJECT_NAME":"EXPRESS-AM5","OBJECT_ID":"2013-077A","EPOCH":"2026-09-12T07:43:39.806400","MEAN_MOTION":1.0027113,"ECCENTRICITY":0.00015992,"INCLINATION":0.0258,"RA_OF_ASC_NODE":247.5134,"ARG_OF_PERICENTER":252.4536,"MEAN_ANOMALY":107.3075,"EPHEMERIS_TYPE":0,"CLASSIFICATION_TYPE":"U","NORAD_CAT_ID":39487,"ELEMENT_SET_NO":999,"REV_AT_EPOCH":4723,"BSTAR":0,"MEAN_MOTION_DOT":-0.00000295,"MEAN_MOTION_DDOT":0},{"OBJECT_NAME":"GSAT-14","OBJECT_ID":"2014-001A","EPOCH":"2026-09-12T02:16:56.136288","MEAN_MOTION":1.00271955,"ECCENTRICITY":0.00050835,"INCLINATION":0.0359,"RA_OF_ASC_NODE":258.403,"ARG_OF_PERICENTER":319.9083,"MEAN_ANOMALY":241.0257,"EPHEMERIS_TYPE":0,"CLASSIFICATION_TYPE":"U","NORAD_CAT_ID":39498,"ELEMENT_SET_NO":999,"REV_AT_EPOCH":4624,"BSTAR":0,"MEAN_MOTION_DOT":-9.2e-7,"MEAN_MOTION_DDOT":0},{"OBJECT_NAME":"THAICOM 6","OBJECT_ID":"2014-002A","EPOCH":"2026-09-12T04:29:21.896736","MEAN_MOTION":1.00272091,"ECCENTRICITY":0.0003696,"INCLINATION":0.0523,"RA_OF_ASC_NODE":113.4736,"ARG_OF_PERICENTER":39.228,"MEAN_ANOMALY":344.3565,"EPHEMERIS_TYPE":0,"CLASSIFICATION_TYPE":"U","NORAD_CAT_ID":39500,"ELEMENT_SET_NO":999,"REV_AT_EPOCH":4633,"BSTAR":0,"MEAN_MOTION_DOT":-0.00000136,"MEAN_MOTION_DDOT":0},{"OBJECT_NAME":"TDRS 12","OBJECT_ID":"2014-004A","EPOCH":"2026-09-12T06:51:59.759712","MEAN_MOTION":1.002703,"ECCENTRICITY":0.00063525,"INCLINATION":4.069,"RA_OF_ASC_NODE":20.4192,"ARG_OF_PERICENTER":215.7269,"MEAN_ANOMALY":177.2344,"EPHEMERIS_TYPE":0,"CLASSIFICATION_TYPE":"U","NORAD_CAT_ID":39504,"ELEMENT_SET_NO":999,"REV_AT_EPOCH":4515,"BSTAR":0,"MEAN_MOTION_DOT":-0.00000282,"MEAN_MOTION_DDOT":0},{"OBJECT_NAME":"ABS-2","OBJECT_ID":"2014-006A","EPOCH":"2026-09-12T04:55:21.489312","MEAN_MOTION":1.00271852,"ECCENTRICITY":0.00031563,"INCLINATION":0.0317,"RA_OF_ASC_NODE":261.0341,"ARG_OF_PERICENTER":275.2519,"MEAN_ANOMALY":323.6876,"EPHEMERIS_TYPE":0,"CLASSIFICATION_TYPE":"U","NORAD_CAT_ID":39508,"ELEMENT_SET_NO":999,"REV_AT_EPOCH":4615,"BSTAR":0,"MEAN_MOTION_DOT":-0.00000101,"MEAN_MOTION_DDOT":0},{"OBJECT_NAME":"ATHENA-FIDUS","OBJECT_ID":"2014-006B","EPOCH":"2026-09-12T05:31:52.442976","MEAN_MOTION":1.0027152,"ECCENTRICITY":0.00015022,"INCLINATION":0.0203,"RA_OF_ASC_NODE":124.2326,"ARG_OF_PERICENTER":60.6641,"MEAN_ANOMALY":287.1058,"EPHEMERIS_TYPE":0,"CLASSIFICATION_TYPE":"U","NORAD_CAT_ID":39509,"ELEMENT_SET_NO":999,"REV_AT_EPOCH":4596,"BSTAR":0,"MEAN_MOTION_DOT":0.00000139,"MEAN_MOTION_DDOT":0},{"OBJECT_NAME":"TURKSAT 4A","OBJECT_ID":"2014-007A","EPOCH":"2026-09-12T05:32:59.835840","MEAN_MOTION":1.00269067,"ECCENTRICITY":0.00034212,"INCLINATION":0.0805,"RA_OF_ASC_NODE":286.039,"ARG_OF_PERICENTER":319.2659,"MEAN_ANOMALY":231.1945,"EPHEMERIS_TYPE":0,"CLASSIFICATION_TYPE":"U","NORAD_CAT_ID":39522,"ELEMENT_SET_NO":999,"REV_AT_EPOCH":4584,"BSTAR":0,"MEAN_MOTION_DOT":0.00000131,"MEAN_MOTION_DDOT":0},{"OBJECT_NAME":"EXPRESS-AT1","OBJECT_ID":"2014-010A","EPOCH":"2026-09-12T04:34:21.608832","MEAN_MOTION":1.00314867,"ECCENTRICITY":0.00048446,"INCLINATION":0.4762,"RA_OF_ASC_NODE":84.6025,"ARG_OF_PERICENTER":81.6655,"MEAN_ANOMALY":328.2469,"EPHEMERIS_TYPE":0,"CLASSIFICATION_TYPE":"U","NORAD_CAT_ID":39612,"ELEMENT_SET_NO":999,"REV_AT_EPOCH":4569,"BSTAR":0,"MEAN_MOTION_DOT":-0.00000109,"MEAN_MOTION_DDOT":0},{"OBJECT_NAME":"EXPRESS-AT2","OBJECT_ID":"2014-010B","EPOCH":"2026-09-12T05:36:51.964992","MEAN_MOTION":1.00273743,"ECCENTRICITY":0.00007194,"INCLINATION":0.0201,"RA_OF_ASC_NODE":243.9322,"ARG_OF_PERICENTER":45.3983,"MEAN_ANOMALY":202.1301,"EPHEMERIS_TYPE":0,"CLASSIFICATION_TYPE":"U","NORAD_CAT_ID":39613,"ELEMENT_SET_NO":999,"REV_AT_EPOCH":4537,"BSTAR":0,"MEAN_MOTION_DOT":6.3e-7,"MEAN_MOTION_DDOT":0},{"OBJECT_NAME":"AMAZONAS 4A","OBJECT_ID":"2014-011A","EPOCH":"2026-09-12T06:42:38.157120","MEAN_MOTION":1.00273661,"ECCENTRICITY":0.00060248,"INCLINATION":0.0516,"RA_OF_ASC_NODE":183.6264,"ARG_OF_PERICENTER":359.2791,"MEAN_ANOMALY":195.0344,"EPHEMERIS_TYPE":0,"CLASSIFICATION_TYPE":"U","NORAD_CAT_ID":39616,"ELEMENT_SET_NO":999,"REV_AT_EPOCH":4558,"BSTAR":0,"MEAN_MOTION_DOT":-0.00000267,"MEAN_MOTION_DDOT":0},{"OBJECT_NAME":"ASTRA 5B","OBJECT_ID":"2014-011B","EPOCH":"2026-09-12T05:27:45.338112","MEAN_MOTION":1.002693,"ECCENTRICITY":0.00028069,"INCLINATION":0.1039,"RA_OF_ASC_NODE":293.5902,"ARG_OF_PERICENTER":256.5197,"MEAN_ANOMALY":266.5756,"EPHEMERIS_TYPE":0,"CLASSIFICATION_TYPE":"U","NORAD_CAT_ID":39617,"ELEMENT_SET_NO":999,"REV_AT_EPOCH":4554,"BSTAR":0,"MEAN_MOTION_DOT":0.00000122,"MEAN_MOTION_DDOT":0},{"OBJECT_NAME":"IRNSS-1B","OBJECT_ID":"2014-017A","EPOCH":"2026-09-12T00:10:44.143968","MEAN_MOTION":1.00269719,"ECCENTRICITY":0.00203538,"INCLINATION":28.7769,"RA_OF_ASC_NODE":238.9116,"ARG_OF_PERICENTER":191.5497,"MEAN_ANOMALY":338.329,"EPHEMERIS_TYPE":0,"CLASSIFICATION_TYPE":"U","NORAD_CAT_ID":39635,"ELEMENT_SET_NO":999,"REV_AT_EPOCH":4566,"BSTAR":0,"MEAN_MOTION_DOT":9.4e-7,"MEAN_MOTION_DDOT":0},{"OBJECT_NAME":"LUCH-5V","OBJECT_ID":"2014-023A","EPOCH":"2026-09-12T00:40:05.422656","MEAN_MOTION":1.00270837,"ECCENTRICITY":0.00026582,"INCLINATION":5.3446,"RA_OF_ASC_NODE":68.7928,"ARG_OF_PERICENTER":139.8943,"MEAN_ANOMALY":247.126,"EPHEMERIS_TYPE":0,"CLASSIFICATION_TYPE":"U","NORAD_CAT_ID":39727,"ELEMENT_SET_NO":999,"REV_AT_EPOCH":4523,"BSTAR":0,"MEAN_MOTION_DOT":-0.00000281,"MEAN_MOTION_DDOT":0},{"OBJECT_NAME":"KAZSAT-3","OBJECT_ID":"2014-023B","EPOCH":"2026-09-12T03:55:09.217632","MEAN_MOTION":1.00270109,"ECCENTRICITY":0.00002193,"INCLINATION":0.0151,"RA_OF_ASC_NODE":181.9155,"ARG_OF_PERICENTER":245.1694,"MEAN_ANOMALY":41.3759,"EPHEMERIS_TYPE":0,"CLASSIFICATION_TYPE":"U","NORAD_CAT_ID":39728,"ELEMENT_SET_NO":999,"REV_AT_EPOCH":4333,"BSTAR":0,"MEAN_MOTION_DOT":0,"MEAN_MOTION_DDOT":0},{"OBJECT_NAME":"EUTELSAT 3B","OBJECT_ID":"2014-030A","EPOCH":"2026-09-12T07:04:36.051744","MEAN_MOTION":1.00272579,"ECCENTRICITY":0.00040918,"INCLINATION":0.0665,"RA_OF_ASC_NODE":358.5685,"ARG_OF_PERICENTER":171.5662,"MEAN_ANOMALY":290.4101,"EPHEMERIS_TYPE":0,"CLASSIFICATION_TYPE":"U","NORAD_CAT_ID":39773,"ELEMENT_SET_NO":999,"REV_AT_EPOCH":4494,"BSTAR":0,"MEAN_MOTION_DOT":5e-8,"MEAN_MOTION_DDOT":0},{"OBJECT_NAME":"ASIASAT 8 (AMOS-7)","OBJECT_ID":"2014-046A","EPOCH":"2026-09-12T00:43:12.622944","MEAN_MOTION":1.0026889,"ECCENTRICITY":0.00014932,"INCLINATION":0.0124,"RA_OF_ASC_NODE":225.2071,"ARG_OF_PERICENTER":300.0431,"MEAN_ANOMALY":301.8791,"EPHEMERIS_TYPE":0,"CLASSIFICATION_TYPE":"U","NORAD_CAT_ID":40107,"ELEMENT_SET_NO":999,"REV_AT_EPOCH":10302,"BSTAR":0,"MEAN_MOTION_DOT":-0.00000348,"MEAN_MOTION_DDOT":0}]